Marion, SC

4:03 PM EST on February 14, 2016 (GMT -0500)
Marion County

Weather History for KMAO - March, 2013

Change the Weather History Date:

Friday, March 8, 2013

  Actual Average (KFLO) Record (KFLO)
Temperature  
Mean Temperature 44 °F 54 °F  
Max Temperature 57 °F 65 °F 90 °F (1974)
Min Temperature 32 °F 42 °F 26 °F (1960)
Degree Days  
Heating Degree Days 20 12  
Month to date heating degree days 102  
Since 1 July heating degree days 2168  
Cooling Degree Days 0 0  
Month to date cooling degree days 0  
Year to date cooling degree days 6  
Moisture  
Dew Point 28 °F    
Average Humidity 57    
Maximum Humidity 87    
Minimum Humidity 31    
Precipitation  
Precipitation 0.00 in 0.12 in 1.39 in (1998)
Month to date precipitation 0.90  
Year to date precipitation 7.05  
Sea Level Pressure  
Sea Level Pressure 30.23 in    
Wind  
Wind Speed 8 mph (NW)    
Max Wind Speed 15 mph    
Max Gust Speed 26 mph    
Visibility 10 miles    
Events      
T = Trace of Precipitation, MM = Missing Value Source: NWS Daily Summary

Daily Weather History Graph

Daily Weather History Graph

Search for Another Location

Airport or City:

Trip Planner

Search our weather history database for the weather conditions in past years. The results will help you decide how hot, cold, wet, or windy it might be!

Date:

Astronomy

Mar. 08, 2013 Rise Set
Actual Time 6:36 AM EST 6:19 PM EST
Civil Twilight 6:11 AM EST 6:44 PM EST
Nautical Twilight 5:42 AM EST 7:13 PM EST
Astronomical Twilight 5:13 AM EST 7:42 PM EST
Moon 4:12 AM EST (3/8) 3:19 PM EST (3/8)
Length of Visible Light 12h 32m
Length of Day
11h 42m
Waning Crescent, 12% of the Moon is Illuminated
Mar 8
Waning Crescent
Mar 11
New
Mar 19
First Quarter
Mar 27
Full
Apr 3
Last Quarter

Hourly Weather History & Observations

Time (EST) Temp. Windchill Dew Point Humidity Pressure Visibility Wind Dir Wind Speed Gust Speed Precip Events Conditions
12:15 AM 41.0 °F 33.5 °F 30.2 °F 65% 30.24 in 10.0 mi North 13.8 mph 18.4 mph N/A   Clear
12:35 AM 41.0 °F 36.4 °F 28.4 °F 61% 30.24 in 10.0 mi North 6.9 mph - N/A   Clear
12:55 AM 39.2 °F 35.0 °F 30.2 °F 70% 30.24 in 10.0 mi North 5.8 mph - N/A   Clear
1:15 AM 39.2 °F 35.9 °F 30.2 °F 70% 30.25 in 10.0 mi NNW 4.6 mph - N/A   Clear
1:35 AM 37.4 °F 32.8 °F 30.2 °F 75% 30.25 in 10.0 mi NNW 5.8 mph - N/A   Clear
1:55 AM 37.4 °F 32.8 °F 28.4 °F 70% 30.24 in 10.0 mi North 5.8 mph - N/A   Clear
2:15 AM 37.4 °F 33.8 °F 28.4 °F 70% 30.24 in 10.0 mi NNW 4.6 mph - N/A   Clear
2:55 AM 35.6 °F 32.8 °F 28.4 °F 75% 30.23 in 10.0 mi NNW 3.5 mph - N/A   Clear
3:15 AM 35.6 °F 31.7 °F 28.4 °F 75% 30.23 in 10.0 mi NW 4.6 mph - N/A   Clear
3:35 AM 35.6 °F 31.7 °F 28.4 °F 75% 30.23 in 10.0 mi NW 4.6 mph - N/A   Clear
3:55 AM 33.8 °F 30.8 °F 28.4 °F 81% 30.23 in 10.0 mi NW 3.5 mph - N/A   Clear
4:15 AM 33.8 °F 30.8 °F 28.4 °F 81% 30.23 in 10.0 mi WNW 3.5 mph - N/A   Clear
4:55 AM 32.0 °F 28.7 °F 28.4 °F 87% 30.24 in 10.0 mi NW 3.5 mph - N/A   Clear
5:15 AM 32.0 °F 28.7 °F 28.4 °F 87% 30.25 in 10.0 mi NW 3.5 mph - N/A   Clear
5:35 AM 32.0 °F 28.7 °F 28.4 °F 87% 30.25 in 10.0 mi NW 3.5 mph - N/A   Clear
5:55 AM 32.0 °F 27.5 °F 28.4 °F 87% 30.26 in 10.0 mi WNW 4.6 mph - N/A   Clear
6:15 AM 32.0 °F 27.5 °F 28.4 °F 87% 30.27 in 10.0 mi NW 4.6 mph - N/A   Clear
6:55 AM 32.0 °F 28.7 °F 28.4 °F 87% 30.27 in 10.0 mi NW 3.5 mph - N/A   Clear
7:35 AM 33.8 °F 29.6 °F 28.4 °F 81% 30.28 in 10.0 mi NW 4.6 mph - N/A   Clear
7:55 AM 35.6 °F 30.7 °F 28.4 °F 75% 30.28 in 7.0 mi NNW 5.8 mph - N/A   Clear
8:15 AM 37.4 °F 32.1 °F 30.2 °F 75% 30.29 in 10.0 mi NNW 6.9 mph - N/A   Clear
8:35 AM 41.0 °F 34.3 °F 30.2 °F 65% 30.29 in 10.0 mi NNW 11.5 mph 16.1 mph N/A   Clear
8:55 AM 42.8 °F 37.0 °F 28.4 °F 57% 30.29 in 10.0 mi NNW 10.4 mph 17.3 mph N/A   Clear
9:15 AM 44.6 °F 39.7 °F 28.4 °F 53% 30.29 in 10.0 mi NNW 9.2 mph 19.6 mph N/A   Clear
9:35 AM 46.4 °F 40.4 °F 28.4 °F 50% 30.29 in 10.0 mi NNW 13.8 mph 17.3 mph N/A   Clear
9:55 AM 46.4 °F 40.7 °F 28.4 °F 50% 30.29 in 10.0 mi NNW 12.7 mph 20.7 mph N/A   Clear
10:15 AM 48.2 °F - 28.4 °F 46% 30.28 in 10.0 mi NNW 12.7 mph 18.4 mph N/A   Clear
10:35 AM 50.0 °F - 28.4 °F 43% 30.28 in 10.0 mi North 12.7 mph 17.3 mph N/A   Clear
10:55 AM 50.0 °F - 26.6 °F 40% 30.26 in 10.0 mi NNW 11.5 mph 19.6 mph N/A   Clear
11:15 AM 51.8 °F - 26.6 °F 38% 30.25 in 10.0 mi North 6.9 mph 19.6 mph N/A   Clear
11:35 AM 51.8 °F - 26.6 °F 38% 30.24 in 10.0 mi NW 11.5 mph 20.7 mph N/A   Clear
11:55 AM 51.8 °F - 26.6 °F 38% 30.23 in 10.0 mi NW 13.8 mph 26.5 mph N/A   Clear
12:15 PM 53.6 °F - 26.6 °F 35% 30.23 in 10.0 mi NNW 12.7 mph 21.9 mph N/A   Clear
12:35 PM 53.6 °F - 26.6 °F 35% 30.22 in 10.0 mi NW 11.5 mph 21.9 mph N/A   Clear
12:55 PM 53.6 °F - 26.6 °F 35% 30.22 in 10.0 mi NW 15.0 mph 24.2 mph N/A   Clear
1:15 PM 53.6 °F - 26.6 °F 35% 30.21 in 10.0 mi NNW 13.8 mph 20.7 mph N/A   Clear
1:35 PM 53.6 °F - 26.6 °F 35% 30.19 in 10.0 mi WNW 13.8 mph 20.7 mph N/A   Clear
1:55 PM 55.4 °F - 26.6 °F 33% 30.18 in 10.0 mi NW 15.0 mph 20.7 mph N/A   Clear
2:15 PM 55.4 °F - 26.6 °F 33% 30.18 in 10.0 mi NW 11.5 mph 20.7 mph N/A   Clear
2:35 PM 55.4 °F - 26.6 °F 33% 30.18 in 10.0 mi WNW 8.1 mph 20.7 mph N/A   Clear
2:55 PM 55.4 °F - 26.6 °F 33% 30.18 in 10.0 mi NNW 11.5 mph 19.6 mph N/A   Clear
3:15 PM 55.4 °F - 26.6 °F 33% 30.18 in 10.0 mi WNW 12.7 mph 23.0 mph N/A   Clear
3:35 PM 55.4 °F - 26.6 °F 33% 30.18 in 10.0 mi NW 11.5 mph 21.9 mph N/A   Clear
3:55 PM 57.2 °F - 26.6 °F 31% 30.18 in 10.0 mi NW 10.4 mph 20.7 mph N/A   Clear
4:15 PM 55.4 °F - 26.6 °F 33% 30.18 in 10.0 mi WNW 11.5 mph 17.3 mph N/A   Clear
4:35 PM 55.4 °F - 26.6 °F 33% 30.18 in 10.0 mi NW 11.5 mph 24.2 mph N/A   Clear
4:55 PM 55.4 °F - 26.6 °F 33% 30.18 in 10.0 mi NNW 12.7 mph - N/A   Clear
5:15 PM 55.4 °F - 26.6 °F 33% 30.18 in 10.0 mi NNW 12.7 mph - N/A   Clear
5:35 PM 55.4 °F - 26.6 °F 33% 30.18 in 10.0 mi NW 9.2 mph - N/A   Clear
5:55 PM 53.6 °F - 26.6 °F 35% 30.18 in 10.0 mi NW 6.9 mph - N/A   Clear
6:15 PM 53.6 °F - 26.6 °F 35% 30.18 in 10.0 mi NW 6.9 mph - N/A   Clear
6:35 PM 51.8 °F - 26.6 °F 38% 30.18 in 10.0 mi NW 5.8 mph - N/A   Clear
6:55 PM 50.0 °F - 26.6 °F 40% 30.19 in 10.0 mi WNW 3.5 mph - N/A   Clear
7:15 PM 50.0 °F - 26.6 °F 40% 30.20 in 10.0 mi WNW 3.5 mph - N/A   Clear
7:35 PM 48.2 °F - 28.4 °F 46% 30.20 in 10.0 mi West 4.6 mph - N/A   Clear
7:55 PM 42.8 °F - 32.0 °F 66% 30.21 in 10.0 mi Calm Calm - N/A   Clear
8:15 PM 42.8 °F - 32.0 °F 66% 30.21 in 10.0 mi Calm Calm - N/A   Clear
8:35 PM 41.0 °F 39.0 °F 32.0 °F 70% 30.23 in 10.0 mi NW 3.5 mph - N/A   Clear
8:55 PM 41.0 °F 39.0 °F 32.0 °F 70% 30.23 in 10.0 mi NNW 3.5 mph - N/A   Clear
9:15 PM 41.0 °F - 32.0 °F 70% 30.24 in 10.0 mi Calm Calm - N/A   Clear
9:35 PM 39.2 °F - 32.0 °F 75% 30.25 in 10.0 mi Calm Calm - N/A   Clear
9:55 PM 39.2 °F 34.2 °F 32.0 °F 75% 30.28 in 10.0 mi West 6.9 mph - N/A   Clear
10:15 PM 39.2 °F 35.9 °F 32.0 °F 75% 30.28 in 10.0 mi West 4.6 mph - N/A   Clear
10:35 PM 37.4 °F 34.9 °F 32.0 °F 81% 30.28 in 10.0 mi WNW 3.5 mph - N/A   Clear
10:55 PM 39.2 °F 35.9 °F 32.0 °F 75% 30.29 in 10.0 mi WNW 4.6 mph - N/A   Clear
11:15 PM 39.2 °F 37.0 °F 30.2 °F 70% 30.29 in 10.0 mi NW 3.5 mph - N/A   Clear
11:55 PM 41.0 °F 39.0 °F 28.4 °F 61% 30.29 in 10.0 mi NW 3.5 mph - N/A   Clear